WUK7KG EGGW-LRCK

Flight info

Callsign WUK7KG
Flight time N/A
Altitude 35000
Route MATCH Q295 BRAIN M197 REDFA L620 TACHA DCT RKN DCT KUMER DCT OMELO DCT EVIKU DCT ROMIS DCT PITOK DCT PERIT DCT BADOR DCT RIVOS
Aircraft A21N/M-SDE3FGHIRWY/LB1

Departure

Time 2026-05-06 10:52
Airport London Luton Airport (EGGW)

Arrival

Time N/A
Airport Mihail Kogălniceanu International Airport (LRCK)
Time Latitude Longitude Altitude Speed Heading
2026-05-06 10:31 51.87852 -0.37130 523 ft 0 kts 232°
2026-05-06 10:40 51.87858 -0.37117 523 ft 2 kts 233°
2026-05-06 10:40 51.87867 -0.37099 523 ft 1 kts 233°
2026-05-06 10:41 51.87873 -0.37086 523 ft 2 kts 223°
2026-05-06 10:41 51.87885 -0.37074 522 ft 2 kts 200°
2026-05-06 10:41 51.87900 -0.37069 522 ft 2 kts 180°
2026-05-06 10:41 51.87912 -0.37071 522 ft 0 kts 164°
2026-05-06 10:42 51.87918 -0.37075 522 ft 1 kts 161°
2026-05-06 10:42 51.87919 -0.37075 522 ft 0 kts 161°
2026-05-06 10:46 51.87910 -0.37070 522 ft 3 kts 162°
2026-05-06 10:46 51.87876 -0.37053 522 ft 7 kts 162°
2026-05-06 10:46 51.87820 -0.37024 524 ft 10 kts 162°
2026-05-06 10:46 51.87748 -0.36986 526 ft 12 kts 161°
2026-05-06 10:47 51.87667 -0.36943 529 ft 9 kts 173°
2026-05-06 10:47 51.87626 -0.36998 531 ft 8 kts 253°
2026-05-06 10:47 51.87610 -0.37083 531 ft 8 kts 254°
2026-05-06 10:47 51.87594 -0.37173 531 ft 8 kts 255°
2026-05-06 10:48 51.87579 -0.37265 532 ft 8 kts 258°
2026-05-06 10:48 51.87580 -0.37362 532 ft 9 kts 282°
2026-05-06 10:48 51.87563 -0.37451 532 ft 9 kts 214°
2026-05-06 10:48 51.87516 -0.37507 533 ft 8 kts 234°
2026-05-06 10:49 51.87496 -0.37596 533 ft 8 kts 253°
2026-05-06 10:49 51.87479 -0.37695 533 ft 10 kts 255°
2026-05-06 10:49 51.87459 -0.37815 530 ft 12 kts 256°
2026-05-06 10:49 51.87433 -0.37961 525 ft 10 kts 252°
2026-05-06 10:50 51.87393 -0.38045 521 ft 10 kts 211°
2026-05-06 10:50 51.87363 -0.38068 520 ft 4 kts 205°
2026-05-06 10:50 51.87315 -0.38099 517 ft 6 kts 189°
2026-05-06 10:50 51.87262 -0.38102 516 ft 5 kts 178°
2026-05-06 10:51 51.87250 -0.38083 517 ft 0 kts 98°
2026-05-06 10:51 51.87250 -0.38075 517 ft 0 kts 75°
2026-05-06 10:51 51.87301 -0.37804 530 ft 62 kts 77°
2026-05-06 10:52 51.87485 -0.36749 532 ft 131 kts 75°
2026-05-06 10:52 51.87752 -0.35165 900 ft 150 kts 71°
2026-05-06 10:52 51.88003 -0.33638 1604 ft 144 kts 70°
2026-05-06 10:52 51.88260 -0.32143 2313 ft 138 kts 69°
2026-05-06 10:53 51.88524 -0.30657 2653 ft 145 kts 69°
2026-05-06 10:53 51.88808 -0.29060 2912 ft 156 kts 69°
2026-05-06 10:53 51.89108 -0.27348 3174 ft 168 kts 70°
2026-05-06 10:53 51.89440 -0.25454 3398 ft 186 kts 70°
2026-05-06 10:54 51.89605 -0.23350 3691 ft 205 kts 89°
2026-05-06 10:54 51.89415 -0.21123 3976 ft 222 kts 96°
2026-05-06 10:54 51.89123 -0.18563 4250 ft 242 kts 97°
2026-05-06 10:54 51.88823 -0.15863 4616 ft 258 kts 96°
2026-05-06 10:55 51.88523 -0.12985 5222 ft 264 kts 96°
2026-05-06 10:55 51.88234 -0.10080 5960 ft 265 kts 96°
2026-05-06 10:55 51.87962 -0.07243 6660 ft 267 kts 96°
2026-05-06 10:55 51.87689 -0.04337 7330 ft 271 kts 96°
2026-05-06 10:56 51.87412 -0.01354 7949 ft 275 kts 96°
2026-05-06 10:56 51.87131 0.01679 8547 ft 280 kts 96°
2026-05-06 10:56 51.86855 0.04663 9124 ft 284 kts 96°
2026-05-06 10:56 51.86570 0.07754 9696 ft 288 kts 97°
2026-05-06 10:57 51.86280 0.10897 10266 ft 292 kts 97°
2026-05-06 10:57 51.85982 0.14110 10584 ft 306 kts 97°
2026-05-06 10:57 51.85673 0.17435 10848 ft 320 kts 97°
2026-05-06 10:57 51.85350 0.20905 11103 ft 333 kts 97°
2026-05-06 10:58 51.85001 0.24624 11370 ft 347 kts 97°
2026-05-06 10:58 51.84652 0.28342 11800 ft 353 kts 97°
2026-05-06 10:58 51.84295 0.32121 12352 ft 356 kts 97°
2026-05-06 10:58 51.83949 0.35777 12863 ft 359 kts 97°
2026-05-06 10:59 51.83570 0.39765 13396 ft 362 kts 97°
2026-05-06 10:59 51.83199 0.43666 13900 ft 365 kts 97°
2026-05-06 10:59 51.82814 0.47684 14415 ft 368 kts 98°
2026-05-06 10:59 51.82428 0.51703 14924 ft 371 kts 98°
2026-05-06 11:00 51.82035 0.55776 15396 ft 374 kts 98°
2026-05-06 11:00 51.81639 0.59871 15881 ft 377 kts 98°
2026-05-06 11:00 51.81413 0.63908 16321 ft 380 kts 90°
2026-05-06 11:00 51.81530 0.67436 16701 ft 381 kts 82°
2026-05-06 11:01 51.82639 0.75461 17565 ft 386 kts 75°
2026-05-06 11:01 51.83320 0.79659 17978 ft 389 kts 75°
2026-05-06 11:01 51.84050 0.83866 18401 ft 392 kts 73°
2026-05-06 11:02 51.84828 0.88098 18824 ft 395 kts 73°
2026-05-06 11:02 51.85615 0.92369 19225 ft 397 kts 73°
2026-05-06 11:02 51.86388 0.96583 19629 ft 399 kts 73°
2026-05-06 11:02 51.87162 1.00830 20033 ft 401 kts 73°
2026-05-06 11:03 51.87933 1.05073 20414 ft 404 kts 73°
2026-05-06 11:03 51.88723 1.09442 20786 ft 407 kts 73°
2026-05-06 11:03 51.89512 1.13819 21132 ft 409 kts 73°
2026-05-06 11:03 51.90287 1.18126 21501 ft 411 kts 73°
2026-05-06 11:04 51.91083 1.22568 21866 ft 413 kts 73°